{"data":{"norad_id":56034,"intl_designator":"2023-042BA","name":"STARLINK-5782","alt_names":[],"object_type":"PAYLOAD","status":"ACTIVE","operator":null,"country":"US","launch_date":"2023-03-24","launch_site_code":"AFETR","launch_vehicle":null,"mission":null,"orbit_class":"UNKNOWN","rcs_meters":null,"size_class":null,"mass_kg":null,"dimensions":null,"purposes":["comms"],"wikipedia_slug":null,"has_3d_model":false,"image_url":null,"decayed_at":null,"tle_current":{"epoch":"2026-09-20T08:26:29.989536Z","epoch_age_seconds":118972,"freshness":"FRESH","line1":"1 56034U 23042BA  26263.35173599 -.00000136  00000+0  45829-5 0  9993","line2":"2 56034  43.0033  26.1168 0001799 267.8606  92.2040 15.27570386192809","mean_motion":15.27570386,"eccentricity":0.0001799,"inclination_deg":43.0033,"raan_deg":26.1168,"arg_perigee_deg":267.8606,"mean_anomaly_deg":92.204,"bstar":4.5829e-6,"rev_number":19280,"period_min":94.267341995984,"perigee_km":481.84355140763,"apogee_km":484.31221652288,"semimajor_km":6861.2148839653,"source":"CELESTRAK","updated_at":"2026-09-21T09:00:33.359458Z"}}}